Year,Month,Day,Hour,Minute,Value (Times are PST for windspeed in km/hr)
2008,02,08,00,00,23.60
2008,02,08,00,01,25.60
2008,02,08,00,02,24.30
2008,02,08,00,03,25.40
2008,02,08,00,04,29.20
2008,02,08,00,05,24.30
2008,02,08,00,06,24.10
2008,02,08,00,07,29.00
2008,02,08,00,08,17.40
2008,02,08,00,09,13.20
2008,02,08,00,10,9.50
2008,02,08,00,11,16.30
2008,02,08,00,12,15.10
2008,02,08,00,13,19.60
2008,02,08,00,14,12.10
2008,02,08,00,15,11.80
2008,02,08,00,16,13.20
2008,02,08,00,17,7.80
2008,02,08,00,18,22.00
2008,02,08,00,19,15.50
2008,02,08,00,20,13.60
2008,02,08,00,21,14.60
2008,02,08,00,22,18.40
2008,02,08,00,23,17.20
2008,02,08,00,24,19.80
2008,02,08,00,25,13.50
2008,02,08,00,26,7.80
2008,02,08,00,27,19.10
2008,02,08,00,28,14.70
2008,02,08,00,29,13.70
2008,02,08,00,30,17.50
2008,02,08,00,31,8.10
2008,02,08,00,32,10.20
2008,02,08,00,33,13.00
2008,02,08,00,34,23.60
2008,02,08,00,35,18.90
2008,02,08,00,36,11.00
2008,02,08,00,37,17.10
2008,02,08,00,38,20.40
2008,02,08,00,39,10.10
2008,02,08,00,40,22.50
2008,02,08,00,41,19.30
2008,02,08,00,42,23.40
2008,02,08,00,43,17.30
2008,02,08,00,44,11.60
2008,02,08,00,45,15.00
2008,02,08,00,46,14.50
2008,02,08,00,47,15.70
2008,02,08,00,48,15.30
2008,02,08,00,49,29.70
2008,02,08,00,50,21.20
2008,02,08,00,51,30.40
2008,02,08,00,52,28.50
2008,02,08,00,53,17.80
2008,02,08,00,54,27.30
2008,02,08,00,55,28.20
2008,02,08,00,56,20.00
2008,02,08,00,57,17.40
2008,02,08,00,58,15.70
2008,02,08,00,59,21.30
2008,02,08,01,00,21.60
2008,02,08,01,01,15.60
2008,02,08,01,02,16.00
2008,02,08,01,03,23.00
2008,02,08,01,04,24.70
2008,02,08,01,05,22.10
2008,02,08,01,06,12.00
2008,02,08,01,07,19.40
2008,02,08,01,08,19.90
2008,02,08,01,09,19.70
2008,02,08,01,10,22.30
2008,02,08,01,11,26.60
2008,02,08,01,12,31.20
2008,02,08,01,13,19.50
2008,02,08,01,14,14.60
2008,02,08,01,15,15.80
2008,02,08,01,16,15.60
2008,02,08,01,17,18.30
2008,02,08,01,18,33.10
2008,02,08,01,19,19.50
2008,02,08,01,20,20.10
2008,02,08,01,21,14.30
2008,02,08,01,22,26.80
2008,02,08,01,23,24.00
2008,02,08,01,24,26.20
2008,02,08,01,25,29.90
2008,02,08,01,26,26.60
2008,02,08,01,27,31.40
2008,02,08,01,28,22.50
2008,02,08,01,29,28.30
2008,02,08,01,30,19.40
2008,02,08,01,31,10.40
2008,02,08,01,32,25.20
2008,02,08,01,33,31.50
2008,02,08,01,34,22.60
2008,02,08,01,35,27.10
2008,02,08,01,36,23.20
2008,02,08,01,37,26.40
2008,02,08,01,38,26.90
2008,02,08,01,39,30.00
2008,02,08,01,40,33.30
2008,02,08,01,41,20.80
2008,02,08,01,42,23.30
2008,02,08,01,43,20.30
2008,02,08,01,44,30.50
2008,02,08,01,45,26.90
2008,02,08,01,46,27.50
2008,02,08,01,47,23.30
2008,02,08,01,48,20.10
2008,02,08,01,49,19.30
2008,02,08,01,50,7.90
2008,02,08,01,51,8.50
2008,02,08,01,52,19.00
2008,02,08,01,53,27.70
2008,02,08,01,54,15.20
2008,02,08,01,55,17.80
2008,02,08,01,56,28.40
2008,02,08,01,57,24.70
2008,02,08,01,58,32.00
2008,02,08,01,59,32.10
2008,02,08,02,00,28.30
2008,02,08,02,01,22.80
2008,02,08,02,02,22.30
2008,02,08,02,03,21.30
2008,02,08,02,04,18.40
2008,02,08,02,05,28.10
2008,02,08,02,06,32.80
2008,02,08,02,07,36.20
2008,02,08,02,08,36.10
2008,02,08,02,09,37.10
2008,02,08,02,10,21.90
2008,02,08,02,11,30.70
2008,02,08,02,12,28.00
2008,02,08,02,13,28.30
2008,02,08,02,14,31.30
2008,02,08,02,15,34.20
2008,02,08,02,16,20.80
2008,02,08,02,17,25.30
2008,02,08,02,18,22.90
2008,02,08,02,19,26.20
2008,02,08,02,20,25.70
2008,02,08,02,21,21.10
2008,02,08,02,22,18.50
2008,02,08,02,23,10.80
2008,02,08,02,24,25.50
2008,02,08,02,25,31.20
2008,02,08,02,26,28.10
2008,02,08,02,27,20.80
2008,02,08,02,28,22.40
2008,02,08,02,29,22.60
2008,02,08,02,30,23.20
2008,02,08,02,31,19.20
2008,02,08,02,32,17.40
2008,02,08,02,33,16.40
2008,02,08,02,34,29.40
2008,02,08,02,35,17.40
2008,02,08,02,36,32.90
2008,02,08,02,37,28.10
2008,02,08,02,38,21.40
2008,02,08,02,39,21.80
2008,02,08,02,40,26.40
2008,02,08,02,41,25.70
2008,02,08,02,42,23.50
2008,02,08,02,43,14.60
2008,02,08,02,44,22.20
2008,02,08,02,45,21.80
2008,02,08,02,46,22.80
2008,02,08,02,47,31.70
2008,02,08,02,48,29.20
2008,02,08,02,49,26.50
2008,02,08,02,50,29.40
2008,02,08,02,51,26.60
2008,02,08,02,52,27.50
2008,02,08,02,53,28.20
2008,02,08,02,54,25.60
2008,02,08,02,55,24.90
2008,02,08,02,56,24.90
2008,02,08,02,57,22.70
2008,02,08,02,58,19.20
2008,02,08,02,59,26.90
2008,02,08,03,00,19.60
2008,02,08,03,01,10.10
2008,02,08,03,02,12.90
2008,02,08,03,03,24.50
2008,02,08,03,04,20.70
2008,02,08,03,05,18.90
2008,02,08,03,06,21.10
2008,02,08,03,07,19.60
2008,02,08,03,08,31.60
2008,02,08,03,09,26.10
2008,02,08,03,10,13.20
2008,02,08,03,11,21.50
2008,02,08,03,12,16.70
2008,02,08,03,13,15.50
2008,02,08,03,14,14.90
2008,02,08,03,15,23.70
2008,02,08,03,16,35.30
2008,02,08,03,17,30.30
2008,02,08,03,18,29.70
2008,02,08,03,19,24.10
2008,02,08,03,20,23.00
2008,02,08,03,21,20.80
2008,02,08,03,22,23.40
2008,02,08,03,23,15.50
2008,02,08,03,24,20.50
2008,02,08,03,25,24.00
2008,02,08,03,26,16.80
2008,02,08,03,27,18.80
2008,02,08,03,28,21.50
2008,02,08,03,29,20.80
2008,02,08,03,30,14.50
2008,02,08,03,31,15.60
2008,02,08,03,32,19.50
2008,02,08,03,33,17.60
2008,02,08,03,34,17.20
2008,02,08,03,35,26.00
2008,02,08,03,36,14.60
2008,02,08,03,37,14.90
2008,02,08,03,38,15.30
2008,02,08,03,39,14.70
2008,02,08,03,40,12.10
2008,02,08,03,41,21.60
2008,02,08,03,42,15.10
2008,02,08,03,43,18.70
2008,02,08,03,44,23.30
2008,02,08,03,45,20.70
2008,02,08,03,46,19.70
2008,02,08,03,47,26.70
2008,02,08,03,48,28.20
2008,02,08,03,49,22.80
2008,02,08,03,50,26.20
2008,02,08,03,51,31.20
2008,02,08,03,52,28.60
2008,02,08,03,53,20.40
2008,02,08,03,54,20.60
2008,02,08,03,55,22.70
2008,02,08,03,56,21.30
2008,02,08,03,57,26.40
2008,02,08,03,58,21.50
2008,02,08,03,59,19.20
2008,02,08,04,00,25.60
2008,02,08,04,01,29.40
2008,02,08,04,02,35.40
2008,02,08,04,03,30.50
2008,02,08,04,04,27.80
2008,02,08,04,05,23.10
2008,02,08,04,06,16.60
2008,02,08,04,07,23.80
2008,02,08,04,08,30.30
2008,02,08,04,09,23.30
2008,02,08,04,10,39.50
2008,02,08,04,11,38.10
2008,02,08,04,12,29.80
2008,02,08,04,13,20.30
2008,02,08,04,14,22.70
2008,02,08,04,15,30.90
2008,02,08,04,16,29.50
2008,02,08,04,17,21.20
2008,02,08,04,18,24.10
2008,02,08,04,19,24.90
2008,02,08,04,20,25.00
2008,02,08,04,21,17.10
2008,02,08,04,22,27.20
2008,02,08,04,23,32.90
2008,02,08,04,24,31.10
2008,02,08,04,25,26.60
2008,02,08,04,26,32.90
2008,02,08,04,27,34.20
2008,02,08,04,28,33.10
2008,02,08,04,29,39.70
2008,02,08,04,30,26.50
2008,02,08,04,31,20.80
2008,02,08,04,32,18.10
2008,02,08,04,33,40.50
2008,02,08,04,34,25.10
2008,02,08,04,35,17.80
2008,02,08,04,36,26.40
2008,02,08,04,37,33.50
2008,02,08,04,38,35.00
2008,02,08,04,39,24.80
2008,02,08,04,40,24.10
2008,02,08,04,41,19.80
2008,02,08,04,42,17.90
2008,02,08,04,43,16.40
2008,02,08,04,44,10.40
2008,02,08,04,45,11.00
2008,02,08,04,46,12.50
2008,02,08,04,47,16.80
2008,02,08,04,48,22.60
2008,02,08,04,49,16.90
2008,02,08,04,50,12.30
2008,02,08,04,51,23.40
2008,02,08,04,52,31.10
2008,02,08,04,53,26.10
2008,02,08,04,54,25.00
2008,02,08,04,55,24.20
2008,02,08,04,56,27.30
2008,02,08,04,57,25.50
2008,02,08,04,58,22.70
2008,02,08,04,59,27.00
2008,02,08,05,00,27.40
2008,02,08,05,01,20.40
2008,02,08,05,02,20.20
2008,02,08,05,03,15.80
2008,02,08,05,04,17.20
2008,02,08,05,05,21.20
2008,02,08,05,06,11.60
2008,02,08,05,07,22.00
2008,02,08,05,08,18.00
2008,02,08,05,09,12.10
2008,02,08,05,10,11.40
2008,02,08,05,11,20.00
2008,02,08,05,12,20.40
2008,02,08,05,13,29.80
2008,02,08,05,14,20.40
2008,02,08,05,15,16.90
2008,02,08,05,16,17.80
2008,02,08,05,17,21.70
2008,02,08,05,18,15.20
2008,02,08,05,19,13.40
2008,02,08,05,20,13.40
2008,02,08,05,21,15.80
2008,02,08,05,22,16.60
2008,02,08,05,23,25.80
2008,02,08,05,24,16.40
2008,02,08,05,25,17.20
2008,02,08,05,26,20.70
2008,02,08,05,27,21.20
2008,02,08,05,28,27.20
2008,02,08,05,29,21.60
2008,02,08,05,30,22.90
2008,02,08,05,31,19.50
2008,02,08,05,32,18.50
2008,02,08,05,33,24.60
2008,02,08,05,34,21.60
2008,02,08,05,35,18.80
2008,02,08,05,36,13.10
2008,02,08,05,37,16.50
2008,02,08,05,38,19.50
2008,02,08,05,39,14.90
2008,02,08,05,40,14.30
2008,02,08,05,41,10.10
2008,02,08,05,42,10.80
2008,02,08,05,43,9.70
2008,02,08,05,44,8.10
2008,02,08,05,45,8.80
2008,02,08,05,46,7.30
2008,02,08,05,47,5.90
2008,02,08,05,48,7.30
2008,02,08,05,49,16.70
2008,02,08,05,50,17.10
2008,02,08,05,51,8.50
2008,02,08,05,52,12.70
2008,02,08,05,53,12.90
2008,02,08,05,54,21.30
2008,02,08,05,55,20.00
2008,02,08,05,56,19.50
2008,02,08,05,57,16.00
2008,02,08,05,58,16.40
2008,02,08,05,59,14.40
2008,02,08,06,00,18.70
2008,02,08,06,01,16.90
2008,02,08,06,02,14.50
2008,02,08,06,03,15.20
2008,02,08,06,04,15.90
2008,02,08,06,05,18.10
2008,02,08,06,06,22.30
2008,02,08,06,07,17.30
2008,02,08,06,08,17.40
2008,02,08,06,09,21.60
2008,02,08,06,10,19.70
2008,02,08,06,11,21.00
2008,02,08,06,12,22.20
2008,02,08,06,13,17.70
2008,02,08,06,14,24.00
2008,02,08,06,15,24.30
2008,02,08,06,16,18.10
2008,02,08,06,17,22.20
2008,02,08,06,18,27.40
2008,02,08,06,19,23.80
2008,02,08,06,20,20.60
2008,02,08,06,21,22.60
2008,02,08,06,22,17.00
2008,02,08,06,23,28.30
2008,02,08,06,24,31.50
2008,02,08,06,25,35.70
2008,02,08,06,26,24.50
2008,02,08,06,27,25.30
2008,02,08,06,28,18.70
2008,02,08,06,29,30.80
2008,02,08,06,30,27.80
2008,02,08,06,31,25.10
2008,02,08,06,32,29.70
2008,02,08,06,33,27.50
2008,02,08,06,34,22.30
2008,02,08,06,35,25.80
2008,02,08,06,36,23.10
2008,02,08,06,37,20.10
2008,02,08,06,38,19.90
2008,02,08,06,39,15.60
2008,02,08,06,40,20.70
2008,02,08,06,41,20.30
2008,02,08,06,42,20.00
2008,02,08,06,43,12.10
2008,02,08,06,44,8.90
2008,02,08,06,45,7.10
2008,02,08,06,46,9.80
2008,02,08,06,47,6.10
2008,02,08,06,48,6.00
2008,02,08,06,49,8.00
2008,02,08,06,50,3.80
2008,02,08,06,51,13.10
2008,02,08,06,52,19.30
2008,02,08,06,53,14.80
2008,02,08,06,54,4.50
2008,02,08,06,55,13.60
2008,02,08,06,56,21.30
2008,02,08,06,57,16.20
2008,02,08,06,58,16.40
2008,02,08,06,59,15.30
2008,02,08,07,00,24.40
2008,02,08,07,01,21.10
2008,02,08,07,02,12.30
2008,02,08,07,03,16.60
2008,02,08,07,04,13.60
2008,02,08,07,05,14.90
2008,02,08,07,06,15.60
2008,02,08,07,07,10.90
2008,02,08,07,08,9.20
2008,02,08,07,09,13.10
2008,02,08,07,10,16.80
2008,02,08,07,11,13.40
2008,02,08,07,12,26.40
2008,02,08,07,13,26.60
2008,02,08,07,14,18.90
2008,02,08,07,15,19.20
2008,02,08,07,16,13.20
2008,02,08,07,17,26.80
2008,02,08,07,18,13.60
2008,02,08,07,19,15.60
2008,02,08,07,20,5.70
2008,02,08,07,21,5.90
2008,02,08,07,22,21.40
2008,02,08,07,23,15.70
2008,02,08,07,24,12.10
2008,02,08,07,25,14.60
2008,02,08,07,26,27.20
2008,02,08,07,27,22.10
2008,02,08,07,28,19.60
2008,02,08,07,29,23.30
2008,02,08,07,30,10.40
2008,02,08,07,31,13.60
2008,02,08,07,32,10.80
2008,02,08,07,33,21.10
2008,02,08,07,34,20.30
2008,02,08,07,35,20.90
2008,02,08,07,36,22.60
2008,02,08,07,37,31.60
2008,02,08,07,38,25.40
2008,02,08,07,39,23.10
2008,02,08,07,40,24.00
2008,02,08,07,41,27.10
2008,02,08,07,42,33.10
2008,02,08,07,43,20.50
2008,02,08,07,44,19.90
2008,02,08,07,45,22.60
2008,02,08,07,46,28.00
2008,02,08,07,47,20.80
2008,02,08,07,48,26.60
2008,02,08,07,49,13.50
2008,02,08,07,50,22.50
2008,02,08,07,51,15.70
2008,02,08,07,52,22.30
2008,02,08,07,53,21.30
2008,02,08,07,54,14.90
2008,02,08,07,55,18.90
2008,02,08,07,56,14.70
2008,02,08,07,57,28.40
2008,02,08,07,58,14.40
2008,02,08,07,59,21.50
2008,02,08,08,00,10.60
2008,02,08,08,01,17.60
2008,02,08,08,02,28.40
2008,02,08,08,03,24.10
2008,02,08,08,04,23.00
2008,02,08,08,05,22.30
2008,02,08,08,06,18.60
2008,02,08,08,07,22.00
2008,02,08,08,08,24.50
2008,02,08,08,09,27.10
2008,02,08,08,10,22.90
2008,02,08,08,11,20.60
2008,02,08,08,12,13.00
2008,02,08,08,13,25.10
2008,02,08,08,14,29.50
2008,02,08,08,15,20.40
2008,02,08,08,16,15.80
2008,02,08,08,17,19.70
2008,02,08,08,18,11.60
2008,02,08,08,19,17.50
2008,02,08,08,20,11.40
2008,02,08,08,21,14.30
2008,02,08,08,22,17.30
2008,02,08,08,23,10.30
2008,02,08,08,24,10.00
2008,02,08,08,25,14.40
2008,02,08,08,26,13.90
2008,02,08,08,27,14.70
2008,02,08,08,28,14.70
2008,02,08,08,29,13.90
2008,02,08,08,30,9.10
2008,02,08,08,31,10.00
2008,02,08,08,32,10.70
2008,02,08,08,33,10.60
2008,02,08,08,34,7.20
2008,02,08,08,35,8.80
2008,02,08,08,36,4.40
2008,02,08,08,37,13.90
2008,02,08,08,38,13.20
2008,02,08,08,39,10.00
2008,02,08,08,40,17.00
2008,02,08,08,41,14.00
2008,02,08,08,42,27.20
2008,02,08,08,43,21.10
2008,02,08,08,44,14.70
2008,02,08,08,45,10.70
2008,02,08,08,46,16.90
2008,02,08,08,47,8.90
2008,02,08,08,48,15.60
2008,02,08,08,49,16.00
2008,02,08,08,50,15.60
2008,02,08,08,51,21.70
2008,02,08,08,52,15.10
2008,02,08,08,53,11.40
2008,02,08,08,54,7.40
2008,02,08,08,55,9.20
2008,02,08,08,56,6.70
2008,02,08,08,57,14.70
2008,02,08,08,58,9.50
2008,02,08,08,59,11.00
2008,02,08,09,00,15.80
2008,02,08,09,01,18.90
2008,02,08,09,02,17.30
2008,02,08,09,03,19.30
2008,02,08,09,04,12.30
2008,02,08,09,05,11.50
2008,02,08,09,06,17.40
2008,02,08,09,07,23.30
2008,02,08,09,08,20.20
2008,02,08,09,09,21.80
2008,02,08,09,10,22.10
2008,02,08,09,11,17.50
2008,02,08,09,12,24.40
2008,02,08,09,13,23.30
2008,02,08,09,14,17.10
2008,02,08,09,15,12.20
2008,02,08,09,16,15.50
2008,02,08,09,17,13.50
2008,02,08,09,18,15.10
2008,02,08,09,19,16.10
2008,02,08,09,20,12.90
2008,02,08,09,21,11.60
2008,02,08,09,22,14.00
2008,02,08,09,23,19.40
2008,02,08,09,24,19.60
2008,02,08,09,25,16.60
2008,02,08,09,26,19.80
2008,02,08,09,27,20.00
2008,02,08,09,28,17.30
2008,02,08,09,29,17.20
2008,02,08,09,30,14.80
2008,02,08,09,31,10.90
2008,02,08,09,32,17.80
2008,02,08,09,33,19.50
2008,02,08,09,34,20.80
2008,02,08,09,35,25.80
2008,02,08,09,36,9.20
2008,02,08,09,37,12.60
2008,02,08,09,38,18.70
2008,02,08,09,39,23.40
2008,02,08,09,40,14.00
2008,02,08,09,41,10.70
2008,02,08,09,42,17.60
2008,02,08,09,43,25.20
2008,02,08,09,44,17.40
2008,02,08,09,45,16.40
2008,02,08,09,46,18.20
2008,02,08,09,47,14.70
2008,02,08,09,48,15.30
2008,02,08,09,49,11.70
2008,02,08,09,50,15.40
2008,02,08,09,51,12.60
2008,02,08,09,52,14.80
2008,02,08,09,53,11.10
2008,02,08,09,54,7.50
2008,02,08,09,55,22.30
2008,02,08,09,56,23.10
2008,02,08,09,57,23.20
2008,02,08,09,58,19.20
2008,02,08,09,59,17.90
2008,02,08,10,00,18.10
2008,02,08,10,01,21.30
2008,02,08,10,02,18.10
2008,02,08,10,03,18.80
2008,02,08,10,04,19.20
2008,02,08,10,05,14.40
2008,02,08,10,06,12.80
2008,02,08,10,07,12.90
2008,02,08,10,08,13.60
2008,02,08,10,09,15.20
2008,02,08,10,10,15.40
2008,02,08,10,11,12.50
2008,02,08,10,12,17.10
2008,02,08,10,13,16.10
2008,02,08,10,14,13.30
2008,02,08,10,15,13.10
2008,02,08,10,16,21.30
2008,02,08,10,17,23.60
2008,02,08,10,18,25.30
2008,02,08,10,19,20.00
2008,02,08,10,20,22.20
2008,02,08,10,21,15.80
2008,02,08,10,22,21.40
2008,02,08,10,23,28.30
2008,02,08,10,24,20.30
2008,02,08,10,25,21.70
2008,02,08,10,26,22.20
2008,02,08,10,27,20.40
2008,02,08,10,28,23.40
2008,02,08,10,29,18.50
2008,02,08,10,30,15.40
2008,02,08,10,31,20.20
2008,02,08,10,32,27.40
2008,02,08,10,33,20.70
2008,02,08,10,34,17.50
2008,02,08,10,35,19.00
2008,02,08,10,36,18.50
2008,02,08,10,37,19.80
2008,02,08,10,38,17.80
2008,02,08,10,39,16.90
2008,02,08,10,40,15.70
2008,02,08,10,41,15.20
2008,02,08,10,42,11.50
2008,02,08,10,43,19.90
2008,02,08,10,44,24.10
2008,02,08,10,45,26.50
2008,02,08,10,46,17.50
2008,02,08,10,47,13.10
2008,02,08,10,48,8.20
2008,02,08,10,49,18.40
2008,02,08,10,50,14.60
2008,02,08,10,51,18.70
2008,02,08,10,52,13.10
2008,02,08,10,53,19.40
2008,02,08,10,54,13.30
2008,02,08,10,55,11.00
2008,02,08,10,56,13.70
2008,02,08,10,57,23.20
2008,02,08,10,58,18.80
2008,02,08,10,59,13.80
2008,02,08,11,00,20.40
2008,02,08,11,01,16.90
2008,02,08,11,02,21.80
2008,02,08,11,03,21.50
2008,02,08,11,04,19.10
2008,02,08,11,05,16.50
2008,02,08,11,06,14.20
2008,02,08,11,07,16.50
2008,02,08,11,08,15.90
2008,02,08,11,09,13.80
2008,02,08,11,10,7.60
2008,02,08,11,11,11.70
2008,02,08,11,12,14.00
2008,02,08,11,13,16.80
2008,02,08,11,14,20.60
2008,02,08,11,15,20.50
2008,02,08,11,16,20.10
2008,02,08,11,17,19.70
2008,02,08,11,18,12.10
2008,02,08,11,19,18.20
2008,02,08,11,20,13.10
2008,02,08,11,21,17.80
2008,02,08,11,22,19.20
2008,02,08,11,23,18.50
2008,02,08,11,24,14.40
2008,02,08,11,25,14.60
2008,02,08,11,26,16.10
2008,02,08,11,27,25.20
2008,02,08,11,28,15.40
2008,02,08,11,29,13.90
2008,02,08,11,30,18.60
2008,02,08,11,31,12.60
2008,02,08,11,32,21.20
2008,02,08,11,33,21.60
2008,02,08,11,34,16.30
2008,02,08,11,35,19.50
2008,02,08,11,36,9.00
2008,02,08,11,37,15.70
2008,02,08,11,38,14.50
2008,02,08,11,39,16.90
2008,02,08,11,40,10.40
2008,02,08,11,41,17.80
2008,02,08,11,42,17.90
2008,02,08,11,43,20.10
2008,02,08,11,44,22.90
2008,02,08,11,45,23.30
2008,02,08,11,46,20.90
2008,02,08,11,47,22.30
2008,02,08,11,48,16.80
2008,02,08,11,49,22.40
2008,02,08,11,50,20.60
2008,02,08,11,51,18.90
2008,02,08,11,52,15.00
2008,02,08,11,53,16.80
2008,02,08,11,54,16.20
2008,02,08,11,55,20.80
2008,02,08,11,56,18.60
2008,02,08,11,57,13.40
2008,02,08,11,58,22.00
2008,02,08,11,59,23.20
2008,02,08,12,00,26.30
2008,02,08,12,01,18.50
2008,02,08,12,02,27.30
2008,02,08,12,03,20.70
2008,02,08,12,04,17.30
2008,02,08,12,05,14.00
2008,02,08,12,06,26.80
2008,02,08,12,07,25.60
2008,02,08,12,08,25.60
2008,02,08,12,09,24.80
2008,02,08,12,10,20.40
2008,02,08,12,11,31.10
2008,02,08,12,12,25.00
2008,02,08,12,13,17.90
2008,02,08,12,14,19.50
2008,02,08,12,15,20.20
2008,02,08,12,16,23.40
2008,02,08,12,17,21.60
2008,02,08,12,18,20.50
2008,02,08,12,19,18.90
2008,02,08,12,20,20.40
2008,02,08,12,21,24.00
2008,02,08,12,22,23.10
2008,02,08,12,23,23.00
2008,02,08,12,24,22.00
2008,02,08,12,25,20.00
2008,02,08,12,26,20.30
2008,02,08,12,27,24.10
2008,02,08,12,28,24.60
2008,02,08,12,29,21.40
2008,02,08,12,30,21.40
2008,02,08,12,31,21.30
2008,02,08,12,32,22.70
2008,02,08,12,33,21.90
2008,02,08,12,34,17.30
2008,02,08,12,35,27.60
2008,02,08,12,36,23.00
2008,02,08,12,37,27.60
2008,02,08,12,38,23.30
2008,02,08,12,39,16.30
2008,02,08,12,40,19.10
2008,02,08,12,41,22.70
2008,02,08,12,42,18.10
2008,02,08,12,43,21.00
2008,02,08,12,44,18.80
2008,02,08,12,45,23.20
2008,02,08,12,46,22.90
2008,02,08,12,47,21.30
2008,02,08,12,48,23.20
2008,02,08,12,49,21.60
2008,02,08,12,50,14.40
2008,02,08,12,51,20.30
2008,02,08,12,52,16.40
2008,02,08,12,53,25.60
2008,02,08,12,54,24.80
2008,02,08,12,55,18.30
2008,02,08,12,56,15.80
2008,02,08,12,57,18.50
2008,02,08,12,58,14.50
2008,02,08,12,59,16.50
2008,02,08,13,00,16.80
2008,02,08,13,01,18.00
2008,02,08,13,02,15.10
2008,02,08,13,03,11.20
2008,02,08,13,04,17.60
2008,02,08,13,05,22.00
2008,02,08,13,06,16.00
2008,02,08,13,07,22.40
2008,02,08,13,08,22.50
2008,02,08,13,09,18.60
2008,02,08,13,10,19.30
2008,02,08,13,11,11.40
2008,02,08,13,12,18.30
2008,02,08,13,13,15.00
2008,02,08,13,14,16.50
2008,02,08,13,15,16.00
2008,02,08,13,16,17.40
2008,02,08,13,17,18.60
2008,02,08,13,18,18.80
2008,02,08,13,19,19.30
2008,02,08,13,20,16.80
2008,02,08,13,21,19.00
2008,02,08,13,22,20.70
2008,02,08,13,23,26.20
2008,02,08,13,24,21.80
2008,02,08,13,25,21.80
2008,02,08,13,26,25.10
2008,02,08,13,27,17.70
2008,02,08,13,28,13.10
2008,02,08,13,29,23.40
2008,02,08,13,30,26.60
2008,02,08,13,31,15.80
2008,02,08,13,32,16.50
2008,02,08,13,33,18.40
2008,02,08,13,34,15.80
2008,02,08,13,35,17.10
2008,02,08,13,36,14.20
2008,02,08,13,37,14.70
2008,02,08,13,38,17.00
2008,02,08,13,39,12.80
2008,02,08,13,40,10.10
2008,02,08,13,41,20.20
2008,02,08,13,42,20.60
2008,02,08,13,43,16.30
2008,02,08,13,44,19.90
2008,02,08,13,45,17.20
2008,02,08,13,46,19.50
2008,02,08,13,47,23.30
2008,02,08,13,48,21.80
2008,02,08,13,49,22.60
2008,02,08,13,50,24.20
2008,02,08,13,51,23.20
2008,02,08,13,52,16.20
2008,02,08,13,53,17.80
2008,02,08,13,54,19.10
2008,02,08,13,55,21.30
2008,02,08,13,56,21.90
2008,02,08,13,57,15.30
2008,02,08,13,58,20.70
2008,02,08,13,59,20.80
2008,02,08,14,00,19.60
2008,02,08,14,01,18.20
2008,02,08,14,02,22.00
2008,02,08,14,03,13.40
2008,02,08,14,04,18.10
2008,02,08,14,05,20.20
2008,02,08,14,06,18.20
2008,02,08,14,07,20.60
2008,02,08,14,08,15.90
2008,02,08,14,09,17.50
2008,02,08,14,10,19.70
2008,02,08,14,11,15.60
2008,02,08,14,12,8.90
2008,02,08,14,13,17.60
2008,02,08,14,14,15.90
2008,02,08,14,15,16.20
2008,02,08,14,16,12.00
2008,02,08,14,17,15.00
2008,02,08,14,18,17.20
2008,02,08,14,19,21.90
2008,02,08,14,20,16.40
2008,02,08,14,21,14.90
2008,02,08,14,22,17.40
2008,02,08,14,23,16.50
2008,02,08,14,24,15.80
2008,02,08,14,25,19.50
2008,02,08,14,26,10.40
2008,02,08,14,27,8.90
2008,02,08,14,28,11.30
2008,02,08,14,29,19.10
2008,02,08,14,30,17.40
2008,02,08,14,31,15.60
2008,02,08,14,32,19.60
2008,02,08,14,33,16.70
2008,02,08,14,34,14.10
2008,02,08,14,35,12.00
2008,02,08,14,36,18.90
2008,02,08,14,37,14.90
2008,02,08,14,38,8.80
2008,02,08,14,39,7.90
2008,02,08,14,40,10.60
2008,02,08,14,41,9.00
2008,02,08,14,42,18.70
2008,02,08,14,43,16.30
2008,02,08,14,44,10.90
2008,02,08,14,45,17.70
2008,02,08,14,46,16.70
2008,02,08,14,47,20.90
2008,02,08,14,48,12.50
2008,02,08,14,49,16.70
2008,02,08,14,50,13.60
2008,02,08,14,51,15.20
2008,02,08,14,52,12.50
2008,02,08,14,53,10.40
2008,02,08,14,54,10.60
2008,02,08,14,55,12.80
2008,02,08,14,56,12.70
2008,02,08,14,57,16.20
2008,02,08,14,58,8.60
2008,02,08,14,59,14.60
2008,02,08,15,00,15.20
2008,02,08,15,01,9.80
2008,02,08,15,02,7.80
2008,02,08,15,03,13.20
2008,02,08,15,04,11.50
2008,02,08,15,05,12.30
2008,02,08,15,06,16.60
2008,02,08,15,07,10.50
2008,02,08,15,08,8.60
2008,02,08,15,09,8.80
2008,02,08,15,10,11.40
2008,02,08,15,11,9.10
2008,02,08,15,12,11.70
2008,02,08,15,13,12.20
2008,02,08,15,14,11.00
2008,02,08,15,15,14.00
2008,02,08,15,16,13.80
2008,02,08,15,17,13.10
2008,02,08,15,18,15.60
2008,02,08,15,19,12.10
2008,02,08,15,20,6.80
2008,02,08,15,21,15.50
2008,02,08,15,22,12.20
2008,02,08,15,23,9.50
2008,02,08,15,24,12.30
2008,02,08,15,25,11.90
2008,02,08,15,26,15.20
2008,02,08,15,27,13.30
2008,02,08,15,28,13.30
2008,02,08,15,29,9.00
2008,02,08,15,30,10.00
2008,02,08,15,31,7.00
2008,02,08,15,32,6.40
2008,02,08,15,33,7.40
2008,02,08,15,34,6.40
2008,02,08,15,35,11.90
2008,02,08,15,36,12.20
2008,02,08,15,37,8.00
2008,02,08,15,38,15.90
2008,02,08,15,39,10.90
2008,02,08,15,40,9.70
2008,02,08,15,41,12.80
2008,02,08,15,42,6.00
2008,02,08,15,43,6.50
2008,02,08,15,44,7.10
2008,02,08,15,45,11.10
2008,02,08,15,46,9.10
2008,02,08,15,47,9.90
2008,02,08,15,48,5.10
2008,02,08,15,49,4.80
2008,02,08,15,50,6.10
2008,02,08,15,51,4.60
2008,02,08,15,52,4.00
2008,02,08,15,53,5.40
2008,02,08,15,54,7.30
2008,02,08,15,55,5.00
2008,02,08,15,56,9.80
2008,02,08,15,57,8.40
2008,02,08,15,58,7.30
2008,02,08,15,59,4.10
2008,02,08,16,00,1.40
2008,02,08,16,01,5.00
2008,02,08,16,02,2.80
2008,02,08,16,03,5.80
2008,02,08,16,04,3.30
2008,02,08,16,05,5.00
2008,02,08,16,06,6.60
2008,02,08,16,07,4.40
2008,02,08,16,08,3.20
2008,02,08,16,09,1.00
2008,02,08,16,10,1.20
2008,02,08,16,11,4.00
2008,02,08,16,12,2.30
2008,02,08,16,13,2.50
2008,02,08,16,14,4.20
2008,02,08,16,15,3.50
2008,02,08,16,16,3.40
2008,02,08,16,17,5.20
2008,02,08,16,18,2.30
2008,02,08,16,19,2.90
2008,02,08,16,20,7.80
2008,02,08,16,21,5.90
2008,02,08,16,22,5.60
2008,02,08,16,23,3.80
2008,02,08,16,24,2.80
2008,02,08,16,25,4.60
2008,02,08,16,26,4.60
2008,02,08,16,27,2.60
2008,02,08,16,28,3.00
2008,02,08,16,29,0.60
2008,02,08,16,30,0.90
2008,02,08,16,31,2.10
2008,02,08,16,32,0.80
2008,02,08,16,33,4.60
2008,02,08,16,34,5.20
2008,02,08,16,35,5.00
2008,02,08,16,36,7.10
2008,02,08,16,37,5.10
2008,02,08,16,38,0.90
2008,02,08,16,39,2.70
2008,02,08,16,40,4.20
2008,02,08,16,41,4.30
2008,02,08,16,42,4.20
2008,02,08,16,43,2.40
2008,02,08,16,44,3.30
2008,02,08,16,45,3.50
2008,02,08,16,46,3.00
2008,02,08,16,47,3.80
2008,02,08,16,48,3.30
2008,02,08,16,49,4.20
2008,02,08,16,50,2.20
2008,02,08,16,51,0.40
2008,02,08,16,52,0.60
2008,02,08,16,53,2.90
2008,02,08,16,54,4.20
2008,02,08,16,55,3.10
2008,02,08,16,56,3.80
2008,02,08,16,57,4.60
2008,02,08,16,58,4.40
2008,02,08,16,59,6.90
2008,02,08,17,00,2.80
2008,02,08,17,01,1.50
2008,02,08,17,02,4.70
2008,02,08,17,03,4.80
2008,02,08,17,04,2.60
2008,02,08,17,05,3.40
2008,02,08,17,06,1.60
2008,02,08,17,07,3.40
2008,02,08,17,08,2.00
2008,02,08,17,09,2.70
2008,02,08,17,10,3.20
2008,02,08,17,11,4.60
2008,02,08,17,12,5.80
2008,02,08,17,13,6.20
2008,02,08,17,14,5.50
2008,02,08,17,15,4.80
2008,02,08,17,16,3.70
2008,02,08,17,17,4.70
2008,02,08,17,18,4.50
2008,02,08,17,19,1.40
2008,02,08,17,20,4.90
2008,02,08,17,21,5.80
2008,02,08,17,22,9.20
2008,02,08,17,23,6.90
2008,02,08,17,24,9.40
2008,02,08,17,25,9.10
2008,02,08,17,26,8.60